This is the latest recevied weather packets stored in our database for station/object SQ6ILB-11. If no packets are shown the sender has not sent any weather packets the latest 10 day(s).
| Time | Temp. | Humidity | Pressure | Rain* | Wind** | Luminosity | Snow |
|---|---|---|---|---|---|---|---|
| 1788433887 | 20° C | 58% | 990.3 hPa | - | - | - | - |
| 1788432986 | 20° C | 57% | 990.3 hPa | - | - | - | - |
| 1788432086 | 20° C | 60% | 990.4 hPa | - | - | - | - |
| 1788431186 | 20° C | 61% | 990.7 hPa | - | - | - | - |
| 1788430286 | 19.44° C | 62% | 990.7 hPa | - | - | - | - |
| 1788429386 | 19.44° C | 63% | 990.7 hPa | - | - | - | - |
| 1788428486 | 18.89° C | 64% | 991 hPa | - | - | - | - |
| 1788427586 | 18.89° C | 64% | 991 hPa | - | - | - | - |
| 1788426685 | 18.33° C | 65% | 991.1 hPa | - | - | - | - |
| 1788425785 | 17.78° C | 63% | 991.1 hPa | - | - | - | - |
| 1788424885 | 17.78° C | 67% | 991.1 hPa | - | - | - | - |
| 1788423985 | 17.22° C | 68% | 991.1 hPa | - | - | - | - |
| 1788423085 | 16.67° C | 67% | 991.2 hPa | - | - | - | - |
| 1788422185 | 16.11° C | 69% | 991.3 hPa | - | - | - | - |
| 1788421285 | 15.56° C | 68% | 991.4 hPa | - | - | - | - |
| 1788420384 | 15° C | 70% | 991.3 hPa | - | - | - | - |
| 1788419484 | 14.44° C | 71% | 991.5 hPa | - | - | - | - |
| 1788418584 | 14.44° C | 70% | 991.5 hPa | - | - | - | - |
| 1788417684 | 13.89° C | 69% | 991.5 hPa | - | - | - | - |
| 1788416784 | 13.89° C | 68% | 991.4 hPa | - | - | - | - |
| 1788415884 | 13.33° C | 68% | 991.6 hPa | - | - | - | - |
| 1788414984 | 13.33° C | 68% | 991.6 hPa | - | - | - | - |
| 1788414083 | 13.33° C | 67% | 991.5 hPa | - | - | - | - |
| 1788413183 | 13.33° C | 67% | 991.6 hPa | - | - | - | - |
| 1788412283 | 13.33° C | 67% | 991.6 hPa | - | - | - | - |
* Rain since midnight (hover to see other rain measurements)
** Current wind speed in m/s (hover to see current wind gust speed)